When you browse on this site, cookies collect data to enhance your experience and personalize the content and advertising you see.
Visit our Privacy Policy to learn more. By continuing to use the site, you agree to this use of cookies and data.
  • In Hungary
  • List of Countries
  • For 7 days
  • Water Temperature
  • Satellite Maps
  • Weather Map
  • News
  • Weather Widgets
  • user-avatar
    Login

    Hourly Weather San Vicente Xiloxochitla

    Today, 23 February, Saturday

    Time Temperature Precipitation Wind Pressure Humidity
    00:00 +15°C° 0 mm 1 mps 577 mmHg 48%
    01:00 +14°C° 0 mm 1 mps 576 mmHg 51%
    02:00 +12°C° 0 mm 0 mps 576 mmHg 54%
    03:00 +12°C° 0 mm 0 mps 576 mmHg 55%
    04:00 +12°C° 0 mm 0 mps 576 mmHg 57%
    05:00 +11°C° 0 mm 0 mps 575 mmHg 59%
    06:00 +13°C° 0 mm 0 mps 577 mmHg 54%
    07:00 +15°C° 0 mm 1 mps 578 mmHg 49%
    08:00 +18°C° 0 mm 1 mps 579 mmHg 45%
    09:00 +20°C° 0 mm 1 mps 579 mmHg 39%
    10:00 +22°C° 0 mm 1 mps 580 mmHg 34%
    11:00 +24°C° 0 mm 1 mps 581 mmHg 29%
    12:00 +25°C° 0 mm 1 mps 581 mmHg 27%
    13:00 +25°C° 0 mm 2 mps 580 mmHg 25%
    14:00 +26°C° 0 mm 3 mps 580 mmHg 22%
    15:00 +25°C° 0 mm 3 mps 579 mmHg 25%
    16:00 +24°C° 0 mm 3 mps 579 mmHg 28%
    17:00 +22°C° 0 mm 3 mps 579 mmHg 31%
    18:00 +21°C° 0 mm 3 mps 579 mmHg 36%
    19:00 +20°C° 0 mm 3 mps 579 mmHg 41%
    20:00 +18°C° 0 mm 3 mps 580 mmHg 45%
    21:00 +17°C° 0 mm 3 mps 579 mmHg 49%
    22:00 +17°C° 0 mm 2 mps 579 mmHg 53%
    23:00 +16°C° 0 mm 2 mps 579 mmHg 58%

    Tomorrow, 24 February, Sunday

    Time Temperature Precipitation Wind Pressure Humidity
    00:00 +15°C° 0 mm 2 mps 579 mmHg 60%
    01:00 +15°C° 0 mm 2 mps 578 mmHg 62%
    02:00 +14°C° 0 mm 1 mps 578 mmHg 64%
    03:00 +14°C° 0 mm 2 mps 578 mmHg 67%
    04:00 +13°C° 0 mm 2 mps 578 mmHg 71%
    05:00 +13°C° 0 mm 2 mps 577 mmHg 74%
    06:00 +14°C° 0 mm 2 mps 578 mmHg 71%
    07:00 +14°C° 0 mm 3 mps 579 mmHg 67%
    08:00 +16°C° 0 mm 3 mps 580 mmHg 64%
    09:00 +17°C° 0 mm 3 mps 581 mmHg 58%
    10:00 +19°C° 0 mm 3 mps 582 mmHg 51%
    11:00 +20°C° 0 mm 3 mps 582 mmHg 45%
    12:00 +20°C° 0.2 mm 3 mps 581 mmHg 45%
    13:00 +20°C° 0.2 mm 2 mps 581 mmHg 46%
    14:00 +20°C° 0.2 mm 2 mps 580 mmHg 46%
    15:00 +20°C° 0.4 mm 3 mps 580 mmHg 50%
    16:00 +19°C° 0.4 mm 3 mps 579 mmHg 54%
    17:00 +18°C° 0.4 mm 3 mps 579 mmHg 58%
    18:00 +17°C° 0.1 mm 3 mps 579 mmHg 63%
    19:00 +16°C° 0.1 mm 3 mps 579 mmHg 67%
    20:00 +14°C° 0.1 mm 3 mps 579 mmHg 72%
    21:00 +13°C° 0 mm 3 mps 579 mmHg 74%
    22:00 +14°C° 0 mm 2 mps 579 mmHg 76%
    23:00 +13°C° 0 mm 2 mps 579 mmHg 77%

    Day after tomorrow, 25 February, Monday

    Time Temperature Precipitation Wind Pressure Humidity
    00:00 +13°C° 0 mm 2 mps 578 mmHg 79%
    01:00 +12°C° 0 mm 2 mps 578 mmHg 80%
    02:00 +12°C° 0 mm 2 mps 578 mmHg 81%
    03:00 +12°C° 0 mm 1 mps 577 mmHg 82%
    04:00 +11°C° 0 mm 1 mps 577 mmHg 83%
    05:00 +11°C° 0 mm 1 mps 577 mmHg 84%
    06:00 +13°C° 0 mm 1 mps 578 mmHg 77%
    07:00 +14°C° 0 mm 1 mps 580 mmHg 71%
    08:00 +15°C° 0 mm 2 mps 581 mmHg 64%
    09:00 +18°C° 0 mm 1 mps 581 mmHg 56%
    10:00 +20°C° 0 mm 1 mps 582 mmHg 48%
    11:00 +22°C° 0 mm 1 mps 582 mmHg 39%
    12:00 +23°C° 0.1 mm 2 mps 582 mmHg 37%
    13:00 +23°C° 0.1 mm 2 mps 581 mmHg 35%
    14:00 +24°C° 0.1 mm 3 mps 581 mmHg 33%
    15:00 +22°C° 0.5 mm 3 mps 580 mmHg 37%
    16:00 +21°C° 0.5 mm 3 mps 580 mmHg 41%
    17:00 +20°C° 0.5 mm 3 mps 580 mmHg 45%
    18:00 +19°C° 0.6 mm 2 mps 580 mmHg 52%
    19:00 +18°C° 0.6 mm 1 mps 580 mmHg 59%
    20:00 +16°C° 0.6 mm 1 mps 580 mmHg 65%
    21:00 +16°C° 0.5 mm 1 mps 580 mmHg 68%
    22:00 +15°C° 0.5 mm 2 mps 579 mmHg 70%
    23:00 +15°C° 0.5 mm 2 mps 579 mmHg 72%

    26 February, Tuesday

    Time Temperature Precipitation Wind Pressure Humidity
    00:00 +14°C° 0 mm 2 mps 579 mmHg 72%
    01:00 +14°C° 0 mm 1 mps 578 mmHg 72%
    02:00 +14°C° 0 mm 1 mps 578 mmHg 72%
    03:00 +13°C° 0 mm 1 mps 578 mmHg 73%
    04:00 +13°C° 0 mm 1 mps 578 mmHg 73%
    05:00 +13°C° 0 mm 1 mps 578 mmHg 73%
    06:00 +14°C° 0 mm 1 mps 579 mmHg 67%
    07:00 +16°C° 0 mm 1 mps 580 mmHg 61%
    08:00 +18°C° 0 mm 1 mps 580 mmHg 56%
    09:00 +20°C° 0 mm 1 mps 581 mmHg 48%
    10:00 +22°C° 0 mm 1 mps 582 mmHg 41%
    11:00 +24°C° 0 mm 1 mps 582 mmHg 34%
    12:00 +24°C° 0 mm 1 mps 582 mmHg 31%
    13:00 +25°C° 0 mm 2 mps 581 mmHg 29%
    14:00 +25°C° 0 mm 2 mps 581 mmHg 27%
    15:00 +24°C° 0.2 mm 2 mps 580 mmHg 32%
    16:00 +23°C° 0.2 mm 2 mps 579 mmHg 37%
    17:00 +21°C° 0.2 mm 1 mps 579 mmHg 42%
    18:00 +20°C° 0.5 mm 1 mps 579 mmHg 46%
    19:00 +18°C° 0.5 mm 2 mps 579 mmHg 51%
    20:00 +17°C° 0.5 mm 2 mps 579 mmHg 56%
    21:00 +17°C° 0.5 mm 2 mps 579 mmHg 59%
    22:00 +16°C° 0.5 mm 1 mps 579 mmHg 61%
    23:00 +16°C° 0.5 mm 1 mps 579 mmHg 63%

    27 February, Wednesday

    Time Temperature Precipitation Wind Pressure Humidity
    00:00 +15°C° 0.2 mm 1 mps 578 mmHg 64%
    01:00 +15°C° 0.2 mm 1 mps 578 mmHg 65%
    02:00 +15°C° 0.2 mm 1 mps 577 mmHg 66%
    03:00 +14°C° 0 mm 1 mps 577 mmHg 67%
    04:00 +14°C° 0 mm 1 mps 577 mmHg 67%
    05:00 +13°C° 0 mm 1 mps 577 mmHg 68%
    06:00 +15°C° 0 mm 1 mps 578 mmHg 61%
    07:00 +16°C° 0 mm 1 mps 579 mmHg 54%
    08:00 +19°C° 0 mm 1 mps 580 mmHg 47%
    09:00 +21°C° 0 mm 1 mps 580 mmHg 39%
    10:00 +21°C° 0 mm 2 mps 581 mmHg 31%
    11:00 +24°C° 0 mm 2 mps 581 mmHg 24%
    12:00 +25°C° 0 mm 2 mps 581 mmHg 22%
    13:00 +26°C° 0 mm 2 mps 580 mmHg 21%
    14:00 +26°C° 0 mm 2 mps 580 mmHg 19%
    15:00 +25°C° 0 mm 2 mps 580 mmHg 22%
    16:00 +25°C° 0 mm 2 mps 579 mmHg 25%
    17:00 +24°C° 0 mm 2 mps 579 mmHg 28%
    18:00 +22°C° 0 mm 1 mps 579 mmHg 34%
    19:00 +21°C° 0 mm 1 mps 579 mmHg 41%
    20:00 +19°C° 0 mm 1 mps 579 mmHg 47%
    21:00 +19°C° 0 mm 1 mps 578 mmHg 50%
    22:00 +18°C° 0 mm 1 mps 578 mmHg 52%
    23:00 +16°C° 0 mm 1 mps 578 mmHg 55%

    28 February, Thursday

    Time Temperature Precipitation Wind Pressure Humidity
    00:00 +16°C° 0 mm 1 mps 577 mmHg 57%
    01:00 +15°C° 0 mm 1 mps 576 mmHg 59%
    02:00 +15°C° 0 mm 1 mps 576 mmHg 60%
    03:00 +14°C° 0 mm 1 mps 576 mmHg 63%
    04:00 +14°C° 0 mm 1 mps 576 mmHg 65%
    05:00 +12°C° 0 mm 0 mps 576 mmHg 67%
    06:00 +15°C° 0 mm 1 mps 577 mmHg 61%
    07:00 +16°C° 0 mm 1 mps 578 mmHg 55%
    08:00 +19°C° 0 mm 1 mps 578 mmHg 50%
    09:00 +20°C° 0 mm 1 mps 579 mmHg 43%
    10:00 +21°C° 0 mm 2 mps 579 mmHg 37%
    11:00 +24°C° 0 mm 2 mps 580 mmHg 30%
    12:00 +25°C° 0 mm 2 mps 579 mmHg 29%
    13:00 +25°C° 0 mm 3 mps 579 mmHg 27%
    14:00 +26°C° 0 mm 3 mps 578 mmHg 25%
    15:00 +25°C° 0 mm 3 mps 578 mmHg 28%
    16:00 +25°C° 0 mm 4 mps 577 mmHg 31%
    17:00 +23°C° 0 mm 4 mps 577 mmHg 34%
    18:00 +21°C° 0 mm 3 mps 577 mmHg 40%
    19:00 +20°C° 0 mm 2 mps 577 mmHg 45%
    20:00 +18°C° 0 mm 2 mps 577 mmHg 51%
    21:00 +19°C° 0 mm 1 mps 576 mmHg 53%
    22:00 +18°C° 0 mm 1 mps 576 mmHg 56%
    23:00 +16°C° 0 mm 0 mps 576 mmHg 58%
    Show more